Voltar ao catálogo

CZ-6A DEB

AtivoSSO
NORAD 54563·DEBRIS·🇨🇳 China

Lançado Nov 11, 2022 de Taiyuan Satellite Launch Center

Loading…

Próximas Passagens (próximas 24 horas)

TLE

AtualizadoSource: Space-Track

Época: Sep 14, 2026, 11:16 UTC

1 54563U 22151LP  26257.46949355  .00000653  00000-0  35726-3 0  9991
2 54563  98.8324 263.5720 0037065  65.1753 295.3268 14.15035376197762

Acompanhe CZ-6A DEB em tempo real com AllMySat

Download on the App Store